Location: Brastelburg
(48.8308°N, 10.1690°E)
Time: 19:34:12
(UTC+00:00)

Daily predictions for brighter satellites

Satellite Brightness Start Highest point End
(mag) Time Altitude Azimuth Time Altitude Azimuth Time Altitude Azimuth
SL-08 R/B 4.4 16:04:11 10° S 16:10:13 72° E 16:16:17 10° NNE
Cosmos 1975 Rocket 3.3 16:06:07 10° N 16:10:21 48° ENE 16:14:34 10° SSE
USA 215 3.3 16:04:05 10° ESE 16:10:38 79° NNE 16:17:11 10° NW
ARIANE 5 R/B 2.8 16:06:24 10° SE 16:11:05 43° ENE 16:15:49 10° N
ATLAS 5 CENTAUR R/B 2.4 16:08:48 10° NW 16:13:06 64° SW 16:18:28 10° SSE
Cosmos 1844 Rocket 4.5 16:12:45 10° W 16:17:20 25° NW 16:21:57 10° NNE
Cosmos 2344 4.3 16:11:06 10° NW 16:18:01 38° NNE 16:26:32 10° E
Cosmos 1802 Rocket 4.3 16:11:36 10° SSW 16:18:02 77° W 16:24:29 10° N
Iridium 4 Rocket 3.9 16:14:41 10° SSW 16:19:38 63° W 16:24:12 10° N
SAR-Lupe-4 3.8 16:16:41 10° SE 16:20:07 45° ENE 16:23:33 10° N
ISS -3.3 16:24:52 10° SW 16:28:07 51° SSE 16:30:57 13° ENE
CZ-2D R/B 3.0 16:26:22 10° SE 16:29:22 43° ENE 16:32:24 10° N
COSMOS 2406 4.1 16:25:24 10° NNW 16:30:17 28° NE 16:35:09 10° ESE
Cosmos 1833 Rocket 3.7 16:24:49 10° NW 16:30:18 53° WSW 16:35:45 10° S
Cosmos 407 Rocket 3.7 16:25:41 10° S 16:30:41 50° ESE 16:35:38 10° NNE
Cosmos 1484 Rocket 3.9 16:28:14 10° S 16:31:35 43° W 16:34:59 10° NNW
Cosmos 2016 Rocket 4.4 16:25:40 10° SSW 16:31:57 72° W 16:38:21 10° N
Cosmos 1812 3.2 16:30:16 10° SE 16:32:35 22° E 16:34:34 12° NE
IRS-P3 4.3 16:29:25 10° SE 16:34:32 50° ENE 16:39:41 10° N
TIMED 4.4 16:30:36 10° SSW 16:34:51 85° ESE 16:39:09 10° NNE
Tsikada Rocket 4.3 16:29:06 10° N 16:35:32 80° W 16:41:53 10° S
Cosmos 2084 Rocket 4.3 16:35:59 10° WSW 16:39:59 42° NW 16:44:01 10° NNE
SMAP 3.1 16:37:01 10° SSE 16:41:41 89° WSW 16:46:23 10° NNW
Cosmos 44 Rocket 3.6 16:39:04 10° SSW 16:43:37 47° ESE 16:47:37 14° NE
Cosmos 540 Rocket 3.4 16:39:44 10° NNW 16:44:54 77° ENE 16:50:01 10° SSE
SJ 16-02 2.4 16:42:25 10° SSE 16:45:50 23° E 16:47:54 17° ENE
SPOT 1/Viking Rocket 4.0 16:41:42 10° SE 16:46:28 39° ENE 16:51:16 10° N
Cosmos 1869 2.9 16:44:04 10° S 16:47:32 64° E 16:51:01 10° NNE
YAOGAN 1 3.5 16:44:49 10° ESE 16:48:21 26° ENE 16:51:54 10° N
SL-16 R/B 3.3 16:46:29 10° N 16:52:36 56° WNW 16:58:40 10° SW
Cosmos 1763 Rocket 3.6 16:48:06 10° NNW 16:53:20 79° WSW 16:58:28 10° SSE
Landsat 7 3.7 16:49:12 10° SSE 16:53:50 87° ENE 16:58:32 10° NNW
Spot 4 Rocket 4.4 16:52:41 10° SE 16:57:25 40° ENE 17:02:11 10° N
Nadezhda 4 Rocket 4.2 16:52:35 10° N 16:58:39 47° ENE 17:04:38 10° SSE
RESURS DK-1 2.7 16:55:06 10° NW 16:59:05 66° WSW 17:03:02 10° SSE
Timation 1 Rocket 4.5 16:53:07 10° NNW 16:59:07 81° WSW 17:05:04 10° SSE
Cosmos 1140 Rocket 4.2 16:54:44 10° SW 16:59:47 53° WNW 17:04:50 10° NNE
Aureole 3 Rocket 2.3 16:57:36 10° S 17:00:33 54° E 17:03:44 10° NNE
CZ-4C R/B 3.8 16:58:04 10° WNW 17:02:10 24° NNW 17:06:53 11° NE
Resurs 1-3 4.2 16:58:46 10° SE 17:02:37 33° ENE 17:06:29 10° N
UNK 4.2 17:01:08 10° N 17:05:42 61° WNW 17:10:14 10° SSW
CZ-4 R/B 4.4 17:01:51 10° SSE 17:05:44 55° ENE 17:09:36 10° N
SJ-6F 4.2 17:01:52 10° SSE 17:05:46 86° ENE 17:09:43 10° NNW
Cosmos 304 Rocket 4.4 17:04:32 10° SSE 17:08:44 32° ESE 17:10:28 25° ENE
Cosmos 1400 Rocket 3.2 17:06:30 10° SSE 17:10:00 36° E 17:11:07 29° ENE
SJ-12 4.3 17:06:31 10° S 17:10:16 59° WSW 17:14:03 10° NNW
Cosmos 371 Rocket 3.9 17:06:07 10° SSE 17:10:22 33° ESE 17:12:04 26° ENE
Cosmos 1536 Rocket 3.6 17:07:54 10° N 17:12:16 56° ENE 17:16:35 10° SSE
SAR-Lupe-3 4.3 17:13:47 17° N 17:15:36 59° WNW 17:18:11 10° SSW
Helios 1A Rocket 3.6 17:16:48 26° SE 17:16:48 26° SE 17:18:55 10° SSE
Okean 2 Rocket 3.3 17:13:11 10° SSE 17:17:20 43° E 17:20:03 20° NNE
Cosmos 489 Rocket 4.4 17:12:56 10° NNW 17:19:12 67° ENE 17:25:22 10° SSE
NOAA 6 4.2 17:20:42 10° SE 17:25:35 46° ENE 17:30:30 10° N
SL-12 R/B(2) 4.4 17:18:54 10° SW 17:26:58 85° NW 17:35:47 14° NE
Geosat 4.4 17:25:22 31° E 17:27:05 42° NE 17:31:47 10° NNW
COSMO-SKYMED 1 2.6 17:26:49 38° ENE 17:27:48 46° E 17:31:47 10° S
Resurs 01 Rocket 3.3 17:30:11 19° NNE 17:30:11 19° NNE 17:31:50 10° N
Cosmos 1943 Rocket 2.4 17:24:43 10° SW 17:30:19 69° WNW 17:35:17 13° NNE
Timation 2 Rocket 4.4 17:24:52 10° SW 17:31:44 71° WNW 17:38:23 11° NNE
Cosmos 841 Rocket 3.4 17:28:53 10° NNW 17:34:09 67° ENE 17:38:54 13° SSE
Cosmos 2251 Rocket 3.5 17:28:54 10° SSW 17:34:11 88° WNW 17:38:36 16° NNE
Cosmos 2058 3.3 17:30:16 10° NNW 17:34:12 62° W 17:38:07 10° S
SJ-7 3.9 17:32:08 10° SSE 17:35:48 77° ENE 17:39:30 10° N
BREEZE-M DEB (TANK) 2.5 17:35:21 10° WSW 17:38:06 86° SSE 17:39:49 40° E
Cosmos 2082 Rocket 2.5 17:33:45 10° NNW 17:39:19 65° WSW 17:44:51 10° SSE
ATLAS 2AS CENTAUR R/B 3.1 17:33:48 10° NW 17:40:16 43° NE 17:42:14 35° ENE
Cosmos 1346 Rocket 4.3 17:37:15 10° N 17:38:39 21° N 17:38:39 21° N
IRAS Rocket 4.2 17:37:16 10° SSE 17:42:50 89° WSW 17:48:23 10° NNW
Cosmos 2278 Rocket 2.7 17:38:16 10° SW 17:43:51 59° WNW 17:48:32 15° NNE
MOS 1 Rocket 4.1 17:41:00 10° S 17:45:11 48° W 17:49:35 10° NNW
Cosmos 1464 Rocket 4.0 17:43:40 10° S 17:49:58 82° W 17:56:14 10° N
Cosmos 1634 Rocket 4.3 17:44:43 10° SSE 17:57:50 - NNE 17:50:01 41° E
CZ-2D R/B 4.0 17:46:48 10° S 17:50:53 59° WSW 17:55:04 10° NNW
Meteor 2-1 Rocket 4.3 17:45:50 10° S 17:51:40 63° E 17:57:32 10° NNE
Cosmos 2369 Rocket 3.9 17:48:33 10° SSE 17:50:08 17° SSE 17:50:08 17° SSE
USA 215 4.4 17:47:56 10° SSE 17:53:59 40° SW 18:00:06 10° WNW
Cosmos 1862 4.2 17:53:07 10° NNW 17:56:35 43° W 18:00:02 10° SSW
PSLV R/B 3.5 17:52:38 10° S 17:56:40 71° WSW 18:00:42 10° NNW
Cosmos 2151 Rocket 4.2 17:56:13 10° SSW 18:00:37 55° WNW 18:05:05 10° N
Cosmos 1190 Rocket 4.4 17:56:49 10° SW 18:02:03 63° WNW 18:05:26 22° NNE
Cosmos 2034 Rocket 3.9 17:57:41 10° S 18:03:54 87° E 18:10:13 10° N
ISS -2.3 18:01:36 10° W 18:03:52 37° WNW 18:03:52 37° WNW
Cosmos 676 Rocket 3.9 17:59:47 10° SSW 18:05:06 90° SE 18:06:42 47° NNE
Okean 1 Rocket 3.2 18:02:52 10° SSW 18:07:15 72° W 18:08:25 47° N
SKYMED 2 4.4 18:03:51 15° N 18:07:17 50° WNW 18:11:29 10° SW
Cosmos 1656 Rocket 3.5 18:02:18 10° SSW 18:07:47 67° ESE 18:07:59 66° E
USA 281 3.2 18:11:29 53° ENE 18:12:02 55° NE 18:18:25 10° NNW
Sich 1 Rocket 4.0 18:08:32 10° SSW 18:13:02 63° WNW 18:14:56 33° N
Cosmos 1954 Rocket 4.4 18:09:17 10° SW 18:14:29 60° WNW 18:16:53 31° N
COSMOS 2406 3.6 18:09:22 10° NNW 18:15:00 63° WSW 18:19:01 19° S
Cosmos 1932 4.4 18:08:55 10° SSW 18:15:16 75° SE 18:16:22 61° ENE
Cosmos 1092 Rocket 3.8 18:10:27 10° N 18:16:45 85° E 18:22:56 10° S
BlueWalker 3 4.3 18:14:57 10° SSW 18:15:40 15° SSW 18:15:40 15° SSW
Cosmos 2026 Rocket 4.0 18:15:38 10° NNW 18:21:43 80° W 18:27:52 10° S
SJ 16-02 2.5 18:19:39 10° SW 18:23:44 40° WNW 18:24:29 37° NW
YAOGAN 1 4.0 18:20:07 10° SSW 18:24:03 37° W 18:28:02 10° NNW
Cosmos 2344 3.9 18:25:22 10° NW 18:33:20 83° SW 18:38:34 34° SSE
Cosmos 2297 Rocket 4.5 18:32:29 10° N 18:33:09 12° N 18:33:09 12° N
Meteor 2-3 Rocket 4.4 18:32:05 10° NNW 18:37:36 53° W 18:43:02 10° S
CZ-4C R/B 4.1 18:48:00 10° NW 18:51:49 22° N 18:51:49 22° N
Resurs 01 Rocket 4.2 19:07:36 15° NW 19:07:36 15° NW 19:08:26 10° NNW
Cosmos 1943 Rocket 4.4 19:11:27 10° WNW 19:15:06 17° NW 19:16:48 15° NNW
ATLAS 2AS CENTAUR R/B 3.5 19:24:48 10° NW 19:29:41 46° WNW 19:29:41 46° WNW
